Wind_Speed
14 14 14 12 11 8 6 5 2 2 4 2 2 3 1 6 5 3 5 2 5 8 6 8 8 7 8 10 11 11 9 6 5 4 5 13 25 24 21 25 26 25 24 23 24 25 25 23 22 22 20 20 21 21 21 21 20 21 22 22 21 21 20 19 18 18 17 16 16 16 16 15 15 15 14 14 14 14 14 14 13 13 13 12 12 11 11 11 11 11 11 11 11 10 11 11 11
15 14 14 11 10 7 2 2 2 1 3 0 3 2 5 5 4 6 8 6 5 8 9 10 9 11 13 13 11 11 13 12 12 10 11 23 28 24 24 25 24 25 24 23 23 25 25 24 21 21 20 20 21 21 20 20 20 21 22 21 21 20 19 19 18 17 16 16 15 15 15 15 15 14 14 14 13 13 13 13 13 12 12 12 12 11 11 11 11 11 11 11 11 10 11 10 10
15 13 13 10 7 6 2 1 3 2 2 1 4 4 8 6 5 8 9 9 9 10 11 12 10 8 10 12 11 10 12 13 16 15 15 23 22 23 26 23 24 24 24 23 23 23 24 24 21 21 21 21 21 20 20 20 21 22 21 20 20 20 19 18 17 16 16 15 15 15 14 14 14 13 13 13 12 12 12 12 12 12 11 11 11 11 11 11 11 11 11 12 12 11 10 10 10
14 12 11 9 3 4 2 2 3 2 2 1 5 6 8 9 9 8 9 11 10 11 11 11 8 7 10 13 11 10 12 12 17 16 13 18 20 26 28 24 24 23 23 23 23 22 22 24 23 22 21 21 20 20 20 20 22 21 20 20 19 19 18 17 16 16 15 15 14 14 14 14 13 13 12 12 12 11 11 11 11 10 10 10 11 11 10 11 11 11 11 12 12 11 10 9 9
13 11 10 7 1 1 2 1 3 3 2 3 5 6 9 11 11 10 10 10 9 10 10 9 8 9 12 11 8 8 11 12 16 18 16 20 24 28 28 26 25 23 23 22 23 22 23 26 24 22 21 21 20 20 20 21 22 20 19 19 18 17 17 16 16 15 14 14 14 14 13 13 13 12 12 11 11 11 11 10 10 10 10 10 10 10 10 10 11 11 11 11 11 11 10 9 9
12 11 11 8 3 4 3 2 4 2 3 5 5 6 9 11 12 12 10 10 9 9 8 9 11 11 10 10 9 8 11 12 14 17 20 24 26 26 27 26 25 24 23 22 23 23 25 26 24 22 21 20 19 20 21 21 21 19 19 18 17 17 15 15 15 14 14 14 13 13 13 13 12 12 12 11 11 11 10 10 10 10 10 10 10 9 9 10 10 11 11 11 11 10 10 9 8
11 8 8 6 4 5 4 5 3 2 5 5 6 7 10 11 10 11 10 10 9 9 8 9 12 11 9 9 9 11 15 15 13 17 23 27 26 26 25 24 26 27 23 22 23 23 26 26 24 23 21 20 19 20 21 21 20 19 19 17 17 16 15 15 14 14 14 14 13 13 13 12 12 12 12 12 11 10 10 10 10 10 11 10 10 10 10 10 10 10 11 10 10 9 9 9 8
9 4 4 4 4 3 6 5 1 4 5 6 7 8 9 9 8 9 10 8 7 9 11 10 11 10 8 9 8 11 17 16 16 22 27 28 27 25 24 23 25 29 27 22 22 25 26 26 25 23 21 20 20 21 21 21 20 19 18 17 16 15 14 14 13 13 13 13 12 12 12 12 12 12 12 11 11 10 10 10 10 11 11 11 11 11 10 10 10 9 10 10 9 9 9 9 8
8 5 3 4 4 2 5 3 5 5 6 7 8 9 7 7 6 8 9 7 7 9 13 10 9 10 9 12 11 10 15 19 22 27 27 27 27 24 22 23 23 27 29 24 24 27 27 27 25 22 21 20 21 21 21 20 19 18 17 16 15 14 14 13 12 12 12 12 11 11 11 11 12 11 11 10 10 10 10 10 11 11 11 11 11 11 11 10 10 9 9 9 9 9 9 9 9
5 5 3 3 4 4 4 1 4 5 8 7 8 9 6 7 5 7 9 9 8 10 15 11 9 12 11 12 10 9 16 22 26 27 27 26 25 23 22 23 22 24 28 27 26 27 28 28 24 22 21 21 22 21 20 19 18 18 16 15 14 14 13 12 12 11 11 11 11 10 10 11 11 10 10 10 10 10 10 11 11 11 11 11 11 11 11 10 10 10 10 9 9 9 9 9 9
4 5 5 4 3 4 3 2 4 6 9 7 9 8 6 7 6 7 9 9 9 10 14 10 10 14 13 11 7 11 19 22 26 27 27 26 23 23 22 22 22 23 27 27 26 27 28 26 23 22 22 22 21 20 19 18 18 17 15 15 14 13 12 11 11 11 10 10 9 9 9 9 9 9 10 10 10 11 11 11 11 11 10 10 10 10 10 10 10 10 10 10 9 9 9 9 9
6 4 5 4 3 4 2 3 4 7 8 7 9 7 6 6 5 8 8 9 9 10 13 9 9 12 12 10 7 13 20 21 24 26 27 24 22 23 22 22 21 22 25 27 26 26 27 25 23 22 22 21 21 19 19 18 17 16 15 14 13 13 11 11 10 10 10 9 8 8 8 8 8 9 9 10 10 10 10 11 11 10 10 10 10 10 9 10 10 10 10 9 9 9 9 8 8
6 5 5 3 4 6 1 3 3 6 7 7 9 7 7 5 5 7 7 9 7 8 14 12 11 11 11 10 8 12 17 21 23 25 26 23 22 22 22 22 21 22 24 26 26 26 25 24 23 22 21 21 20 19 18 17 16 15 14 14 13 12 11 11 10 10 9 8 8 7 7 7 7 7 8 8 8 9 9 10 11 10 10 10 9 10 10 10 10 10 10 9 9 9 8 8 7
7 6 6 3 5 7 2 2 1 3 7 8 8 6 6 5 6 7 5 9 9 8 12 14 13 10 11 10 8 9 14 22 24 24 24 22 22 22 22 22 22 22 23 24 25 25 24 23 22 22 21 20 19 18 17 16 16 15 14 13 12 12 11 10 10 9 9 8 7 7 7 6 6 6 6 7 7 8 8 8 9 9 9 9 9 9 9 10 10 10 9 9 9 9 8 7 7
7 6 6 5 4 5 6 0 3 3 7 8 7 6 5 6 6 6 4 7 11 8 9 14 12 7 10 11 9 11 18 25 26 25 23 22 22 21 22 22 22 22 22 22 23 23 23 22 22 21 20 19 19 18 17 16 16 15 14 13 12 12 11 10 9 9 8 8 7 7 6 6 6 5 5 5 5 7 8 6 7 8 7 7 7 8 8 8 8 8 8 8 8 9 8 6 6
6 7 5 5 2 1 8 5 4 3 7 8 6 4 6 8 5 6 6 6 10 8 7 10 9 6 10 12 14 19 24 27 27 25 23 22 22 21 22 22 22 21 21 21 22 22 22 22 21 20 20 19 18 17 17 17 16 15 14 13 12 12 11 10 9 9 8 8 7 7 6 6 5 4 4 4 3 5 6 4 5 6 6 6 6 6 7 7 7 7 7 7 7 8 8 7 7
5 7 5 5 2 5 9 6 4 1 7 8 5 3 5 8 5 6 5 7 10 8 7 8 6 4 10 15 21 27 28 28 27 26 24 22 22 21 21 21 21 20 20 21 21 21 21 21 21 20 20 19 18 17 17 17 16 16 14 13 12 12 11 10 9 8 8 8 7 7 6 6 6 5 4 4 2 4 3 2 3 4 4 4 4 4 5 5 6 6 6 7 7 5 6 7 6
5 6 5 6 1 5 8 3 4 2 4 7 5 3 3 6 6 4 4 7 10 9 9 9 7 8 14 23 28 29 29 29 28 27 25 22 21 21 20 21 21 20 20 20 20 21 21 22 21 21 20 20 19 18 17 17 17 16 14 13 13 12 11 10 9 9 8 8 7 7 6 7 7 5 5 4 3 3 1 1 2 2 2 2 3 4 4 5 6 7 7 7 7 4 3 3 4
6 6 6 5 3 7 7 2 5 2 3 5 5 4 2 5 5 3 4 8 9 9 11 10 12 15 18 25 29 30 29 29 28 28 26 23 21 21 21 21 21 21 21 20 21 21 21 21 21 21 21 21 19 18 17 17 18 16 14 14 13 12 11 10 10 10 9 9 8 7 6 6 6 4 5 4 3 4 1 2 1 1 2 2 3 4 4 6 6 7 6 4 5 3 2 1 4
7 7 7 2 6 5 2 3 4 5 5 3 6 4 3 4 5 2 3 8 8 8 10 11 13 15 18 22 26 30 29 28 28 28 27 24 22 22 21 21 21 21 21 20 21 22 21 21 21 21 22 21 19 18 17 17 17 16 14 14 13 12 12 11 11 10 9 9 8 8 7 5 5 4 5 4 3 3 1 2 2 2 2 3 4 3 4 4 4 4 3 2 3 3 2 2 3
7 8 7 2 9 9 4 2 4 5 6 4 6 3 4 5 4 3 3 5 6 7 11 12 14 16 19 22 24 27 27 27 28 27 27 25 23 22 20 21 21 21 22 21 21 22 21 21 22 22 22 21 19 18 17 17 17 16 15 14 13 12 12 11 11 10 10 9 9 8 6 5 6 5 5 4 3 3 3 3 2 3 3 4 3 1 2 2 2 3 2 4 4 3 3 2 1
8 10 9 4 9 9 3 3 4 4 5 3 2 1 4 5 5 4 3 3 1 4 13 14 14 18 19 21 22 24 24 24 25 25 26 25 24 23 20 21 21 20 21 21 21 22 22 22 22 22 22 22 19 17 17 17 17 16 15 14 13 12 12 11 11 10 10 10 9 8 6 6 6 5 5 5 4 3 4 4 3 4 3 5 4 1 3 2 2 4 2 4 4 3 4 4 3
9 9 9 6 10 10 3 2 3 3 6 4 1 2 3 3 4 5 4 4 3 6 16 16 14 18 20 20 21 22 24 24 24 25 27 26 25 23 22 22 21 20 20 20 21 22 23 22 22 22 22 22 20 18 16 16 17 16 14 14 13 12 12 11 11 10 10 10 9 7 7 7 6 5 5 5 4 3 3 3 2 4 3 4 5 3 3 1 2 4 2 2 3 4 4 4 3
12 9 9 9 10 10 7 5 5 5 7 5 4 3 2 3 2 6 6 5 7 7 15 18 16 20 20 19 21 22 23 23 24 26 27 26 25 24 23 22 21 20 20 20 21 22 23 23 23 22 22 22 21 18 17 16 16 15 14 14 13 12 11 11 10 10 9 10 9 7 7 6 6 6 5 5 4 3 3 2 1 2 2 3 3 3 2 1 1 2 2 2 2 4 4 4 3
15 12 10 8 8 8 8 8 8 9 8 6 6 7 5 4 2 3 6 6 8 7 13 19 19 20 20 19 21 21 20 21 23 25 25 24 24 24 23 22 22 21 21 20 20 21 23 23 24 23 22 22 21 19 17 16 16 15 14 14 13 12 12 11 10 10 9 10 10 8 7 6 6 5 5 5 4 3 2 2 2 2 2 2 3 3 3 1 2 2 2 2 2 3 3 3 3
13 15 13 9 8 9 9 10 10 10 8 7 9 9 6 5 4 4 7 8 9 9 12 18 19 20 20 20 21 20 20 20 21 23 24 24 25 25 24 23 22 22 22 22 21 21 22 23 24 23 23 22 21 19 18 16 16 15 14 13 13 12 12 10 10 10 9 10 10 9 8 6 5 5 5 5 4 3 2 2 2 1 2 1 2 2 3 2 1 3 2 1 2 3 3 3 2
8 13 15 13 12 10 10 11 12 11 9 11 11 8 6 6 5 5 7 10 10 11 13 16 17 19 19 19 19 19 20 21 22 23 23 23 24 24 24 23 23 22 22 23 22 21 22 23 23 23 23 22 22 20 18 17 16 16 14 13 13 13 12 10 10 10 10 9 9 10 9 7 5 3 4 5 4 3 3 3 2 2 2 2 1 2 1 2 1 3 1 1 2 3 3 3 2
8 9 11 14 14 12 12 12 13 11 10 13 12 9 8 8 7 5 9 12 11 12 15 16 16 16 17 19 18 17 17 21 24 23 22 22 22 23 24 23 24 23 22 23 22 21 22 23 24 24 23 22 22 20 18 17 16 16 14 13 12 13 12 11 11 10 9 9 9 10 9 8 7 3 3 4 4 3 3 3 3 2 1 2 1 0 1 1 1 1 1 1 1 2 3 3 2
13 10 10 13 14 14 15 14 14 12 10 12 10 10 10 11 10 8 10 13 13 13 15 16 16 15 16 17 16 15 17 21 23 22 23 23 23 24 24 23 24 23 23 23 22 23 24 23 23 24 23 23 22 20 19 17 16 15 15 14 13 13 12 12 11 10 10 9 9 9 9 9 8 5 4 5 4 4 4 3 3 3 3 2 2 1 1 1 3 2 1 1 0 2 3 3 2
14 13 10 11 11 13 15 15 16 15 13 13 10 7 9 12 12 10 11 13 13 14 15 14 14 14 15 15 15 16 17 20 21 22 24 24 23 24 25 24 24 23 22 23 23 23 24 24 23 23 23 23 22 20 19 17 16 15 15 14 13 13 12 12 11 10 10 10 9 10 9 9 9 7 5 6 6 5 4 4 4 4 3 3 2 2 3 2 3 1 1 1 0 1 2 4 3
12 12 10 10 10 10 13 16 17 17 13 14 12 7 7 12 14 13 11 14 14 14 15 14 13 14 13 14 15 16 17 19 22 24 24 25 24 24 25 25 25 23 22 23 24 23 24 24 24 23 23 23 22 21 19 17 16 15 15 14 14 13 12 12 12 11 11 10 10 11 10 10 9 8 7 7 6 6 5 5 5 4 3 3 2 3 3 2 1 1 1 1 1 1 2 3 2
10 11 10 11 10 9 13 16 18 17 13 15 13 7 6 9 13 13 12 13 13 13 14 14 14 15 14 13 13 15 17 19 23 26 26 26 25 24 25 25 25 24 23 23 24 24 24 24 24 24 24 24 22 20 18 17 16 15 15 14 14 13 12 12 12 12 12 12 11 11 12 11 10 10 8 8 7 6 6 5 5 4 3 4 3 2 2 3 2 2 1 1 1 2 3 3 1
10 11 10 12 12 10 10 13 17 18 14 15 15 9 6 7 8 11 13 13 13 12 13 15 14 15 14 12 12 12 15 19 21 24 27 27 25 24 25 25 26 25 24 24 25 25 24 24 24 23 25 24 22 20 18 17 16 14 14 14 13 13 13 12 12 12 12 12 12 11 13 12 11 11 10 9 8 7 6 6 6 6 5 4 3 2 3 3 2 1 1 2 2 2 3 2 1
10 11 11 13 14 12 9 10 14 17 15 15 16 12 9 8 12 13 14 13 12 11 12 14 14 14 14 12 13 12 13 17 18 22 28 28 26 26 26 26 27 26 25 25 25 26 25 25 24 23 24 24 22 21 19 17 16 14 14 14 13 13 13 13 13 12 12 12 12 12 13 13 12 11 11 9 9 8 7 7 6 5 5 4 3 4 4 3 2 2 1 2 1 2 3 2 1
13 12 11 12 13 13 12 11 12 16 17 16 15 14 12 11 13 15 14 12 12 11 11 13 14 15 15 14 14 13 14 16 17 23 29 29 27 27 26 26 27 27 25 25 26 26 25 24 24 23 23 24 22 21 19 18 17 15 14 14 14 13 13 13 13 13 13 12 12 12 13 13 12 12 12 10 9 9 8 8 6 4 4 4 5 5 5 4 3 3 2 3 2 2 3 2 1
16 15 12 12 13 11 12 11 11 16 17 16 15 13 14 14 11 12 14 13 12 11 10 11 13 14 14 13 12 13 15 15 17 24 30 29 28 27 26 26 27 26 25 26 26 26 26 24 24 23 24 25 23 21 20 19 18 17 15 15 15 15 14 14 14 13 13 13 13 13 14 13 13 12 12 11 10 9 9 8 6 5 5 5 5 5 5 3 3 3 2 2 2 2 2 1 1
17 15 14 14 14 11 11 12 11 12 13 15 17 16 14 15 14 13 13 13 12 12 11 10 12 13 14 13 14 14 14 13 16 23 28 29 28 27 27 26 27 27 26 27 27 27 27 26 25 25 24 25 24 23 22 21 20 19 18 17 17 16 16 15 15 14 14 14 13 14 14 14 13 13 13 12 11 11 10 8 6 6 6 6 5 5 5 3 2 2 2 2 3 3 2 2 2
19 14 12 13 14 12 13 15 15 12 10 12 17 17 16 15 16 16 14 14 14 14 13 12 13 14 14 15 15 13 11 12 16 21 25 28 28 28 27 26 28 29 27 28 29 28 28 26 26 25 25 25 25 24 24 23 22 20 19 18 17 17 17 16 16 15 15 14 14 15 15 14 14 14 13 13 12 11 11 9 7 7 7 7 6 5 5 4 4 3 3 3 3 4 3 2 3
18 12 11 11 11 11 12 16 17 12 7 10 14 15 14 14 15 15 15 15 14 14 14 12 13 13 13 15 15 13 13 14 18 20 24 28 29 29 28 26 28 29 28 29 29 29 28 27 26 26 25 25 26 25 25 23 22 21 19 18 18 17 17 17 15 15 15 15 15 15 15 15 15 15 14 14 13 12 12 10 9 8 7 7 6 6 6 5 5 4 5 5 4 4 4 3 3
15 13 11 11 11 12 11 13 17 15 10 11 14 12 11 13 14 14 14 14 13 15 15 13 13 13 13 15 14 14 15 15 18 21 22 25 28 29 28 27 28 29 29 29 29 29 29 28 28 27 26 25 26 26 25 23 21 21 19 17 17 16 15 16 15 15 15 15 16 16 16 16 16 15 15 15 14 13 12 11 10 9 8 8 7 6 6 6 6 5 5 5 4 4 4 4 3
16 17 14 12 15 15 11 11 15 15 15 14 13 10 9 13 15 14 14 16 15 15 16 14 13 12 14 16 16 17 17 17 18 22 23 23 25 28 29 28 28 29 30 30 31 31 29 29 29 28 27 26 25 26 25 23 21 20 19 17 17 16 14 15 16 16 16 17 17 17 17 17 17 16 16 15 15 14 13 12 11 9 8 8 8 7 7 6 6 5 6 6 5 4 2 3 4
15 19 19 17 17 16 15 14 12 11 12 13 14 11 9 14 18 16 14 15 16 15 15 15 13 12 14 17 18 18 19 18 17 20 22 23 24 27 29 28 28 29 30 31 31 31 30 30 30 29 28 27 25 26 26 23 21 21 20 18 17 17 16 16 17 17 17 17 17 17 17 17 18 17 16 16 16 15 14 13 13 11 9 9 8 8 7 6 6 6 6 6 5 4 2 2 3
11 16 20 21 20 17 16 16 13 10 9 11 14 12 8 10 14 17 16 16 18 15 14 15 13 12 13 15 17 18 19 18 17 19 21 23 24 26 28 30 30 30 30 31 31 31 31 30 31 31 28 27 26 26 27 25 22 22 22 20 19 18 17 16 16 16 16 17 16 17 17 17 18 17 17 17 17 16 14 13 14 12 11 10 9 8 8 7 7 6 7 6 5 4 4 3 4
10 13 18 21 22 20 18 16 13 10 9 10 14 14 10 10 12 16 18 18 18 16 14 15 14 14 14 15 16 18 18 19 18 20 22 23 24 26 29 32 32 31 30 30 30 31 32 32 32 32 29 27 26 26 28 27 23 23 23 22 20 19 18 16 16 16 16 15 16 16 17 17 17 18 17 17 17 17 15 13 14 13 12 11 9 9 9 8 7 6 6 6 5 5 5 4 5
12 13 14 16 18 21 19 16 12 10 10 10 14 15 12 10 9 13 17 18 18 16 15 16 15 14 14 14 15 17 19 20 20 21 22 22 24 28 32 33 32 31 31 31 31 31 32 32 32 32 30 28 27 27 29 28 25 23 24 23 21 20 18 16 16 16 16 15 16 16 16 16 17 18 18 18 18 18 17 15 14 14 13 12 11 10 9 8 8 7 7 7 7 6 6 5 6
13 14 15 13 12 14 16 14 12 12 12 12 15 16 12 10 9 11 14 15 15 15 16 16 15 14 13 13 15 17 18 19 20 21 21 22 25 30 32 32 32 31 31 31 30 30 30 31 31 32 31 29 29 29 29 30 27 25 24 24 23 21 19 17 16 17 17 17 16 17 17 16 17 17 18 18 18 18 18 17 16 15 14 13 12 11 10 9 9 9 9 8 7 7 6 7 7
14 15 14 10 8 8 10 11 11 11 13 15 18 19 15 11 9 11 12 13 15 15 14 15 15 16 15 14 17 16 16 15 17 19 20 22 26 29 30 31 32 31 30 31 30 29 30 31 31 33 32 30 29 30 30 31 29 27 25 24 24 22 20 19 18 17 18 18 18 18 18 17 17 17 17 18 18 18 18 18 17 16 15 14 13 12 11 10 10 10 9 8 8 8 8 8 8
14 13 11 8 7 8 8 8 10 12 12 13 18 20 19 14 10 10 12 15 18 16 15 17 18 19 18 17 18 16 14 15 16 17 18 20 22 25 27 29 31 31 30 31 31 31 31 31 32 33 33 31 30 31 32 31 30 28 25 24 24 24 22 21 20 19 19 19 19 18 18 18 17 17 17 17 19 19 18 18 18 16 15 15 14 13 11 11 10 10 9 9 9 9 9 9 9
14 12 11 10 9 8 9 10 10 12 11 11 15 17 17 15 11 12 14 15 17 16 15 17 20 22 20 20 19 15 14 16 16 16 17 18 19 21 24 28 31 31 32 33 33 32 31 32 33 33 33 33 31 31 32 32 31 28 26 25 24 24 24 23 22 21 20 20 19 19 19 19 18 18 18 18 19 19 19 19 18 18 17 16 15 14 12 12 11 10 10 9 10 10 10 11 11
15 13 11 11 9 9 10 11 10 11 11 13 16 15 14 14 11 15 19 17 16 16 16 18 21 22 20 20 17 14 14 16 15 16 17 17 19 19 22 27 30 32 34 35 34 34 32 32 34 34 34 33 32 31 32 32 31 29 28 26 24 24 25 25 23 22 22 21 20 20 20 20 19 19 19 19 19 19 19 19 19 18 18 17 16 15 14 13 12 11 10 10 11 11 11 12 12
14 13 11 11 9 9 9 9 9 10 9 13 16 13 12 11 8 11 17 18 17 15 15 17 19 18 17 18 17 14 14 14 14 16 18 18 20 21 22 27 30 32 35 35 34 34 33 33 35 35 34 34 34 33 32 32 31 30 29 27 25 25 25 25 24 23 23 23 21 21 21 21 20 19 20 20 19 19 19 19 19 19 18 18 17 17 15 15 14 12 12 12 12 11 12 12 13
12 12 12 11 11 9 7 8 10 9 8 10 13 11 9 8 7 8 10 14 18 17 15 15 15 16 15 17 18 15 14 14 15 16 18 20 20 21 23 27 30 31 34 34 34 35 34 33 35 37 36 36 36 35 34 33 32 31 30 28 27 25 24 24 24 24 24 24 23 22 22 22 21 20 19 20 20 21 20 20 20 20 19 19 19 18 17 15 15 14 13 13 13 13 13 13 14
10 13 13 12 12 11 7 8 9 8 9 8 9 10 9 7 8 9 9 11 15 18 19 17 15 16 16 15 17 16 15 16 16 17 18 20 20 21 25 28 30 31 33 35 36 37 37 35 35 36 36 36 36 35 34 33 33 32 31 30 28 27 26 25 25 25 24 24 23 23 22 22 22 21 20 20 21 22 22 22 21 21 20 20 19 19 18 16 16 16 15 15 14 14 14 14 15
9 12 14 12 12 11 8 7 7 7 8 7 9 12 11 8 7 9 14 14 14 16 19 19 18 18 17 16 17 18 18 17 17 18 18 19 20 21 24 28 31 32 34 36 37 37 37 36 36 37 36 36 36 36 35 34 34 33 32 32 31 29 28 27 25 25 24 24 24 24 23 23 23 23 21 20 21 22 22 23 22 22 21 21 20 19 18 17 17 16 16 16 16 15 15 15 16
14 10 13 12 11 11 9 8 8 9 8 7 10 11 9 9 8 8 13 16 14 14 16 18 19 19 18 17 18 21 20 17 16 17 16 18 20 21 24 29 32 34 34 34 35 35 35 36 36 36 37 38 38 36 35 34 35 33 32 34 34 32 29 27 26 25 24 24 25 25 25 24 23 23 23 22 21 22 22 23 23 23 22 22 22 21 20 19 18 17 17 17 17 17 17 17 17
17 12 13 12 10 10 10 8 7 8 7 7 9 11 9 9 10 9 10 13 15 14 13 14 16 17 16 15 16 18 17 15 15 15 15 18 20 23 28 31 32 33 33 32 33 34 35 35 35 35 36 36 36 35 34 34 35 33 32 33 34 33 31 29 27 26 25 26 26 26 25 25 24 23 23 23 23 23 23 24 24 23 23 23 23 22 21 21 20 19 18 18 18 19 19 18 18
16 13 13 12 10 8 9 10 8 8 7 6 7 8 7 6 7 9 9 11 13 13 13 12 12 14 15 15 14 15 15 14 14 15 18 20 20 22 27 29 29 30 31 32 33 34 34 34 34 35 36 35 35 35 35 35 35 34 33 33 34 34 33 31 29 28 28 27 27 26 26 25 25 24 24 24 24 24 24 24 24 24 23 23 23 23 22 22 22 21 20 20 19 20 21 20 19
16 13 12 13 12 10 10 10 10 9 8 6 6 6 2 4 3 4 7 9 11 12 12 12 11 13 14 14 14 15 16 15 16 17 17 17 17 19 22 25 26 27 30 32 33 33 34 34 34 35 35 36 37 37 36 35 35 34 35 35 34 34 33 33 31 31 30 29 27 27 27 26 25 25 25 25 25 25 25 24 24 24 24 24 24 24 23 22 22 22 22 21 20 21 22 22 21
Wind_Direction
160 169 165 177 184 187 194 208 256 199 230 253 221 246 46 71 96 98 84 90 85 111 133 116 108 89 96 103 95 82 67 63 76 101 107 132 141 142 143 141 142 141 141 143 145 146 145 144 138 136 136 135 133 131 130 128 126 127 126 121 116 114 113 111 108 104 101 99 97 94 92 90 89 89 89 88 89 89 89 88 87 87 86 86 86 87 82 80 81 81 80 81 86 88 89 91 93
169 174 171 182 187 196 219 196 278 247 241 211 165 173 89 73 102 98 97 112 91 110 123 116 102 89 102 104 92 81 67 61 82 91 108 131 134 135 141 140 142 142 139 140 142 144 145 144 139 138 136 136 135 132 131 129 129 130 126 120 118 116 114 112 108 104 101 99 96 94 91 90 90 89 88 86 86 85 85 85 85 85 84 85 85 84 83 81 80 80 79 78 82 84 84 86 92
173 178 176 171 192 216 272 197 263 272 248 59 93 78 95 97 70 70 79 94 102 113 112 99 73 77 105 88 75 80 82 81 98 101 117 133 131 135 142 140 140 140 137 139 141 143 144 143 140 138 136 136 135 134 133 131 133 132 125 121 120 117 115 113 108 104 101 100 97 94 92 90 90 88 86 84 83 82 81 82 82 82 82 83 83 81 81 82 81 80 79 79 83 85 86 86 89
176 183 181 165 190 233 258 207 228 225 199 70 72 57 69 80 81 82 81 89 106 110 102 91 59 56 83 80 82 85 91 96 108 111 127 138 133 137 140 139 140 139 137 139 141 141 144 144 141 138 136 137 136 136 134 133 135 130 125 123 122 118 116 113 108 105 103 100 98 95 92 89 88 87 85 83 82 80 79 79 79 81 79 80 81 80 80 80 80 79 79 80 82 85 89 87 87
183 188 193 179 194 253 235 248 250 228 136 73 77 67 64 75 89 93 90 98 108 105 104 109 97 84 76 74 83 90 101 103 113 119 127 135 135 137 139 140 140 138 137 140 141 139 143 145 141 138 138 139 138 137 135 136 135 129 127 125 123 120 118 115 110 107 104 102 98 96 93 90 88 86 85 84 82 79 79 79 79 79 78 78 78 80 79 79 78 77 78 78 81 83 86 86 84
196 195 200 201 263 297 252 249 250 223 65 56 78 79 78 79 85 92 98 104 100 98 99 101 106 104 85 75 72 83 112 118 123 125 129 135 138 138 139 141 139 138 136 139 141 138 144 146 140 139 139 139 139 139 139 138 134 129 128 127 125 124 121 116 112 110 106 103 100 97 94 91 89 87 86 84 82 81 81 80 81 79 78 77 77 78 77 77 77 76 77 77 78 80 82 84 84
205 207 204 207 263 278 254 242 231 108 70 61 81 84 84 89 96 105 108 109 111 110 100 88 101 109 96 90 82 82 109 125 130 129 133 137 139 139 140 142 138 138 139 138 138 140 148 147 142 140 139 140 141 141 141 137 133 131 130 128 127 127 124 118 115 113 109 105 101 98 95 91 89 87 86 84 84 83 83 82 81 80 78 77 77 77 75 76 75 77 78 77 78 79 80 82 86
212 229 243 245 256 237 254 251 95 58 82 84 81 79 81 95 104 104 100 106 126 120 107 98 100 100 83 89 95 91 105 123 129 129 135 137 140 142 142 142 137 136 138 137 136 143 150 148 143 141 141 142 144 143 140 137 134 133 131 130 130 128 125 121 120 117 111 107 102 99 95 91 88 87 86 85 85 83 83 82 81 80 78 77 77 76 75 75 76 78 79 79 78 78 80 80 84
219 227 266 265 265 264 267 257 90 66 84 89 87 89 88 96 89 91 99 111 128 115 108 112 106 101 95 94 97 102 111 124 128 131 137 139 141 144 142 142 139 134 133 132 135 141 147 147 144 142 143 144 145 144 140 137 136 134 133 132 132 130 128 126 125 122 115 110 104 101 96 92 89 87 87 85 84 82 81 81 81 80 78 78 77 76 76 76 77 78 80 80 79 78 78 78 82
221 220 252 258 272 291 269 313 87 93 91 90 90 98 101 97 84 82 96 108 116 114 109 112 104 102 107 101 100 107 115 127 131 136 140 141 143 144 142 141 139 134 131 131 135 138 144 147 145 143 144 146 147 145 141 139 136 135 136 136 135 133 132 130 130 126 120 114 108 103 99 95 91 89 87 86 84 82 80 79 78 76 77 77 76 77 77 77 77 78 80 80 78 79 78 77 81
238 220 237 260 284 285 266 67 92 96 94 102 94 96 99 97 99 87 90 102 109 119 113 110 108 109 110 103 99 108 118 132 137 140 142 144 145 144 142 141 139 135 133 134 136 139 144 146 145 145 146 148 149 146 142 139 138 138 140 140 138 138 135 134 134 129 124 119 113 108 103 98 93 91 88 87 84 80 77 75 73 71 71 72 73 74 76 77 77 77 79 81 80 81 80 78 81
253 241 238 262 277 262 278 56 79 87 94 105 96 97 96 91 101 91 94 109 115 119 111 109 120 122 115 106 107 119 129 138 140 142 144 146 146 144 142 140 140 137 136 136 137 140 143 145 145 146 148 149 149 146 143 141 141 143 145 144 142 142 139 138 136 131 128 124 121 114 107 102 97 93 89 88 84 80 77 74 70 68 69 67 68 70 73 76 78 80 80 81 80 81 83 81 82
250 261 262 267 268 256 264 60 74 106 103 85 84 88 94 89 76 78 88 104 107 111 113 123 128 121 114 109 121 131 137 141 142 144 146 148 146 145 143 141 141 139 138 138 139 141 143 145 146 147 149 150 148 147 144 144 146 148 149 147 146 145 144 141 138 133 131 129 130 125 114 107 103 97 92 90 85 82 79 78 74 68 68 67 68 71 74 76 79 82 81 82 79 79 82 83 85
246 265 276 272 268 275 303 113 149 122 100 85 94 94 100 100 86 86 96 100 89 89 106 123 126 116 118 123 136 142 143 145 147 148 149 149 147 147 145 142 142 141 140 140 142 144 145 147 148 148 149 148 147 147 146 149 151 153 152 150 151 150 149 146 142 139 135 136 137 134 126 119 113 106 100 93 86 80 69 72 79 73 70 69 70 75 78 78 79 79 78 80 78 78 80 84 86
247 268 271 273 285 312 314 222 98 79 93 95 104 110 108 90 98 105 85 91 94 100 107 122 132 127 140 150 153 150 150 150 150 151 151 149 148 148 146 144 142 144 143 143 145 147 149 150 149 149 149 149 149 149 150 154 156 156 157 155 157 156 155 151 148 146 141 145 143 141 139 132 124 115 107 97 90 86 74 68 83 83 76 72 71 75 79 75 73 72 71 73 73 77 78 78 80
244 271 272 276 273 80 285 275 87 67 86 90 92 119 119 90 99 95 72 90 105 124 128 128 134 141 159 158 149 149 152 152 150 152 153 149 149 150 149 147 144 145 146 147 149 150 152 151 151 151 152 154 153 153 154 157 160 160 162 161 162 161 160 158 156 155 152 154 150 147 145 137 136 126 109 103 93 98 99 91 86 88 84 79 77 75 75 69 64 63 61 62 66 74 79 79 79
234 260 267 265 217 113 278 298 83 29 79 95 115 131 117 102 97 77 93 119 115 130 128 120 113 122 143 137 142 149 152 153 152 155 155 152 152 154 153 150 148 148 149 152 153 153 155 154 155 155 156 158 157 157 156 159 164 164 166 165 167 167 165 167 165 163 163 162 160 155 151 157 168 150 130 140 117 90 94 92 83 86 86 77 77 77 69 59 50 48 46 49 53 55 70 75 76
237 247 254 262 250 135 252 296 95 233 78 92 121 135 118 112 110 97 146 131 119 130 116 111 96 87 109 125 140 147 151 154 156 158 157 158 158 158 158 155 155 155 155 156 158 158 158 158 159 159 160 162 161 160 159 162 167 166 168 168 170 173 172 172 171 172 174 175 174 169 170 180 182 160 143 160 146 111 70 46 86 77 79 66 63 70 58 48 41 38 36 47 52 24 34 72 86
237 246 243 245 238 189 219 347 62 22 49 88 113 135 125 106 114 137 174 133 129 139 124 122 109 102 114 129 141 146 153 157 160 162 160 164 162 162 161 158 160 160 160 159 161 163 161 162 163 163 162 164 164 164 164 164 167 168 170 171 172 176 178 178 180 182 184 187 184 188 196 183 172 161 158 171 162 150 101 33 85 77 78 68 64 59 46 47 47 44 37 56 65 25 1 107 118
229 246 250 256 283 253 146 31 35 29 12 86 104 116 135 120 130 164 171 141 148 150 133 133 122 122 131 137 144 149 157 160 164 166 164 168 165 165 165 160 164 165 163 161 163 165 164 165 166 167 165 166 168 166 168 167 168 172 174 176 177 180 183 185 189 189 189 193 190 198 204 176 173 185 180 180 168 175 164 65 77 90 95 91 86 67 63 68 68 64 52 65 54 23 352 258 170
226 237 246 243 291 291 109 87 27 29 354 47 92 124 151 138 145 170 172 149 159 158 141 137 136 141 145 145 150 154 159 163 167 169 167 171 168 168 169 164 167 166 164 164 166 167 166 167 168 169 168 169 171 169 172 171 171 176 178 181 183 184 187 189 192 192 191 195 196 201 195 177 194 191 177 181 183 201 176 151 132 122 118 115 115 55 98 138 115 86 49 35 31 22 11 328 209
236 240 248 232 270 290 84 83 26 12 326 16 105 136 122 129 160 179 182 144 121 138 129 130 142 148 151 151 154 158 162 164 168 171 171 172 171 171 171 168 168 166 167 167 167 169 170 170 170 170 171 172 174 174 175 172 174 180 182 183 186 187 189 191 192 192 191 194 200 202 187 182 203 190 174 190 199 203 178 182 175 146 133 132 149 130 119 167 82 82 26 25 38 41 32 22 51
238 238 241 234 248 273 333 338 342 324 301 318 356 32 96 151 176 173 194 150 90 102 122 136 153 149 153 157 160 164 165 167 170 172 174 174 174 173 172 172 171 170 170 169 169 171 172 172 172 171 173 175 176 178 177 174 177 183 184 184 189 189 189 191 192 192 188 192 200 203 193 189 199 193 181 192 203 202 188 194 171 148 150 147 157 137 130 179 55 77 41 33 35 24 23 22 41
235 247 234 221 228 247 270 279 283 273 272 290 305 292 215 212 182 158 192 163 115 104 123 143 154 148 157 164 168 169 167 170 171 172 175 176 176 175 174 174 173 174 174 171 170 173 175 174 174 174 174 176 178 180 180 179 181 185 184 185 190 189 188 191 191 189 184 188 197 201 204 200 197 193 184 190 203 204 192 188 172 151 150 143 141 120 131 193 73 83 52 46 26 19 22 16 24
225 246 250 230 221 232 244 251 257 255 258 269 260 257 237 211 233 168 180 160 131 120 127 142 150 151 162 170 171 170 168 173 173 173 174 176 178 176 176 177 176 176 177 174 171 174 176 176 175 176 176 178 180 181 183 183 183 186 184 185 189 187 189 192 187 186 184 188 194 197 205 207 201 193 185 190 195 195 188 191 201 150 119 114 160 136 123 146 88 96 70 35 16 30 35 15 21
219 233 247 246 236 226 230 238 242 246 251 255 242 242 237 199 213 215 180 160 145 144 138 142 150 157 165 172 171 168 168 174 176 176 175 175 178 177 178 180 178 179 180 177 174 176 177 177 177 178 177 179 181 182 184 185 184 187 185 184 187 185 192 192 185 188 187 189 191 192 200 211 213 199 189 190 188 189 191 196 203 159 137 172 208 112 107 179 66 81 99 41 10 20 33 24 29
221 233 241 244 248 237 228 234 237 242 246 249 247 245 240 198 195 210 176 162 155 154 149 146 154 161 165 168 168 167 170 175 179 179 177 177 179 179 179 180 180 179 180 179 178 177 177 179 178 179 178 178 182 183 185 185 184 187 185 185 186 186 193 191 188 194 191 191 189 186 194 207 217 208 185 187 191 194 194 197 200 193 171 170 202 28 113 179 82 80 111 26 13 7 7 24 34
227 238 241 236 242 243 234 233 234 236 243 243 244 246 235 201 202 204 166 163 164 159 156 156 160 161 164 166 167 169 172 176 181 181 179 180 181 181 181 180 180 179 180 182 179 176 179 181 179 179 179 179 182 183 183 184 184 186 186 186 188 187 190 191 193 196 192 191 184 180 191 198 208 216 178 185 197 196 196 198 199 202 197 179 169 50 178 169 164 145 120 51 24 353 328 18 38
235 239 246 238 235 238 230 227 229 227 234 236 234 239 225 205 204 188 162 161 166 168 162 162 164 162 165 166 167 172 173 177 182 185 182 181 182 183 184 182 181 180 181 183 179 176 180 182 180 180 180 181 183 184 183 184 185 185 187 188 188 186 188 193 195 195 193 191 184 183 190 192 199 209 192 195 205 201 199 200 204 204 208 216 177 164 220 218 229 222 133 179 25 347 330 11 1
232 236 244 248 239 235 224 218 220 219 224 223 219 233 220 200 192 177 164 162 171 176 168 169 170 164 169 167 168 175 175 178 182 186 184 180 182 184 185 184 182 182 179 182 182 178 179 180 180 181 181 182 184 186 184 185 187 186 188 190 188 186 189 194 195 194 192 190 189 188 190 191 195 201 198 202 208 209 204 199 211 216 207 213 205 212 241 231 217 220 163 199 13 346 346 4 340
223 231 231 241 244 235 220 211 212 213 214 212 213 235 221 186 175 173 170 168 177 181 172 176 176 167 170 170 173 176 176 180 182 185 185 181 182 185 186 185 184 182 179 181 183 181 181 179 180 182 182 183 185 187 185 185 188 187 189 191 188 188 191 194 195 194 191 192 193 190 192 194 194 198 200 202 209 214 211 206 213 220 206 212 227 220 239 255 246 274 270 253 308 319 339 339 315
216 225 224 227 237 240 220 206 207 209 202 204 210 232 228 171 161 170 166 169 182 184 178 179 181 173 168 173 180 180 177 179 182 183 185 183 183 184 185 185 184 183 181 182 181 182 184 181 181 181 180 182 184 186 185 185 188 190 191 192 189 190 194 196 198 197 194 195 196 192 192 194 195 198 200 203 210 215 218 214 207 207 210 226 235 212 238 262 266 290 303 312 305 317 326 314 299
211 221 230 224 221 231 223 197 200 207 199 201 207 225 228 145 150 178 163 171 185 184 186 183 184 176 163 173 187 186 180 177 181 184 184 184 183 183 184 184 185 183 182 182 182 183 184 183 183 181 179 182 184 184 185 185 188 190 192 193 191 192 197 198 199 201 198 197 198 195 191 192 196 196 200 205 210 217 221 221 215 208 210 229 234 225 247 252 257 284 291 305 306 293 299 317 334
208 213 227 233 225 221 214 190 194 204 204 204 204 218 229 165 167 187 169 173 187 188 194 186 187 177 162 178 189 190 189 181 181 183 183 184 181 182 184 184 184 184 183 183 183 183 184 183 184 184 181 181 183 183 185 185 186 189 190 193 193 194 201 201 199 201 202 199 197 196 190 191 195 195 200 204 210 219 222 226 228 209 198 218 228 232 248 251 258 263 250 264 272 291 298 307 308
210 210 216 232 232 222 211 200 188 196 207 210 204 209 223 204 183 182 175 182 192 194 200 192 190 181 170 183 188 189 194 189 185 182 182 183 182 182 183 183 183 184 184 183 183 183 185 184 184 186 183 183 183 181 184 185 187 191 192 193 194 197 203 204 202 201 203 202 196 193 189 189 194 196 199 203 209 218 224 227 229 217 208 221 229 234 242 234 229 238 247 246 235 272 288 293 303
218 215 217 222 228 226 215 213 193 193 208 211 213 215 212 215 209 191 183 188 197 200 204 198 191 183 175 182 190 192 196 195 190 184 181 181 182 182 181 181 183 185 183 182 182 183 185 185 184 187 186 185 183 180 184 187 189 193 193 195 195 198 202 204 206 203 203 204 197 192 190 191 194 196 199 202 208 214 223 226 218 219 222 225 234 245 251 235 209 220 243 232 227 254 259 252 237
233 224 224 222 226 224 206 220 216 197 208 210 215 226 218 214 221 218 201 193 201 202 202 200 196 188 174 179 194 196 198 198 190 186 183 180 180 180 180 181 181 184 183 181 182 183 186 186 185 187 186 185 185 183 185 188 190 192 194 197 197 199 202 203 205 205 204 203 198 193 193 195 195 196 198 200 206 211 217 221 213 213 221 227 232 243 256 252 223 227 244 232 231 245 231 208 192
237 235 234 227 225 224 201 207 218 203 207 215 213 224 225 215 217 218 207 201 206 205 202 199 201 195 172 178 193 192 196 199 190 186 185 181 180 179 180 180 181 182 182 181 183 183 185 186 186 186 184 184 186 185 185 189 192 192 194 198 199 198 200 203 204 204 205 202 197 195 195 197 197 198 199 200 204 208 211 213 210 209 219 228 225 232 243 241 234 231 237 234 226 232 224 215 183
234 234 238 236 222 226 212 201 210 207 208 223 219 225 228 222 222 219 208 205 205 205 205 201 204 198 176 178 187 188 200 199 190 186 184 183 181 179 179 180 182 182 181 182 183 183 184 186 187 186 185 185 187 186 187 190 193 193 195 197 200 200 198 202 205 204 205 203 198 198 198 199 199 199 200 201 203 206 207 205 207 209 214 222 220 224 229 225 230 228 232 235 226 224 205 195 194
231 227 227 234 222 222 220 199 199 203 213 228 228 231 234 231 231 227 224 222 209 201 204 205 209 198 176 181 184 185 200 202 194 188 182 181 181 179 180 181 182 182 181 182 182 183 185 186 188 188 188 187 187 188 188 190 192 193 196 198 202 204 200 200 205 205 204 205 202 200 201 201 200 201 201 202 205 207 206 203 208 211 210 215 215 216 221 222 227 224 231 233 228 239 205 167 177
227 229 225 228 228 227 231 218 201 202 213 224 228 233 233 231 232 227 225 228 216 201 202 207 215 198 170 177 185 185 197 204 200 191 180 179 182 181 181 182 182 183 183 183 183 184 185 186 187 188 189 189 188 188 188 189 190 191 195 198 202 206 203 199 203 205 202 203 204 201 202 204 201 203 203 204 206 207 207 206 208 210 208 211 212 216 224 225 227 225 229 228 224 248 234 153 151
222 226 228 233 237 235 238 234 216 211 219 217 221 231 229 222 227 227 219 220 216 201 201 209 214 203 176 176 184 186 196 201 202 198 183 178 181 180 181 182 184 185 185 185 184 184 185 185 186 187 189 191 190 189 188 187 189 190 193 196 198 200 202 200 201 204 202 202 206 203 202 204 203 204 205 205 207 208 207 208 209 210 211 212 210 217 226 224 227 227 226 225 221 229 229 190 170
224 218 221 230 241 244 244 239 225 222 230 221 219 230 243 227 226 230 224 221 217 200 200 212 209 205 196 189 185 182 193 195 197 205 192 180 179 179 181 183 186 187 185 185 185 185 185 184 185 186 187 190 191 190 188 188 190 191 193 196 197 198 200 202 201 204 206 203 206 206 202 203 204 206 207 206 206 207 206 206 211 214 216 217 212 214 220 222 225 222 219 220 211 200 196 210 213
229 218 216 220 230 238 242 244 241 238 242 238 223 220 237 239 226 228 226 223 220 205 200 214 211 203 205 206 190 180 190 191 191 203 196 183 181 181 181 183 186 187 184 184 185 186 185 184 184 185 186 188 190 190 190 190 192 193 195 197 199 201 202 202 201 204 208 207 207 208 205 202 203 207 208 207 206 207 208 207 210 213 217 221 218 216 220 221 221 210 207 208 200 197 184 192 228
229 226 226 221 223 230 233 238 245 244 245 246 230 221 233 240 224 226 228 223 219 208 204 215 214 203 204 214 202 184 188 192 192 199 195 186 185 185 183 183 184 185 183 184 186 186 185 184 183 184 186 187 188 189 190 192 194 195 197 198 200 203 205 205 203 204 207 208 206 208 208 204 202 206 209 208 207 206 209 209 210 213 216 219 220 221 222 218 216 208 204 205 197 196 182 180 227
223 224 229 225 222 227 228 231 237 241 242 241 233 229 239 247 228 223 227 223 216 209 208 212 212 203 201 218 218 195 186 191 192 194 193 189 189 188 185 182 182 184 184 184 185 184 183 183 183 184 185 187 187 189 190 192 195 197 200 201 201 202 203 205 206 205 205 206 205 205 207 205 202 205 208 209 208 207 208 210 211 214 216 218 219 222 224 217 214 212 208 210 201 193 189 188 207
214 220 222 218 221 227 229 229 231 238 240 236 233 233 241 247 233 223 224 222 218 213 204 200 204 202 194 210 226 206 186 191 193 191 192 191 191 190 187 183 182 184 183 182 184 184 183 183 183 184 185 186 187 188 190 192 194 198 202 202 202 201 200 202 205 204 203 203 205 204 204 205 205 207 208 208 210 209 209 209 211 215 215 218 219 219 223 218 214 214 208 209 203 192 192 197 205
208 215 209 201 208 214 225 223 221 234 237 230 229 232 240 245 234 227 229 223 221 218 202 193 199 202 191 198 221 211 189 194 196 191 190 190 190 190 188 185 183 183 182 182 184 184 183 183 183 183 185 186 186 188 190 191 193 197 202 204 205 202 199 200 203 204 203 201 203 203 202 205 208 210 210 209 211 211 209 208 210 213 213 215 217 216 217 217 215 213 206 203 201 196 199 204 210
202 209 201 200 203 198 212 212 212 230 234 229 226 223 233 245 239 235 239 231 223 222 210 199 206 210 194 189 209 213 197 196 195 192 190 188 189 190 188 186 183 183 183 183 184 184 183 184 183 183 185 185 186 187 188 190 193 196 201 205 206 203 201 202 203 204 204 203 202 202 202 204 206 209 211 211 212 210 208 208 208 210 211 212 213 211 211 214 215 212 204 201 200 198 203 210 213
197 203 198 198 201 195 205 210 215 228 228 224 225 223 231 243 238 229 234 236 229 225 213 203 212 217 197 181 198 214 206 198 192 191 192 188 188 190 189 187 184 185 185 184 184 184 183 183 184 184 184 185 184 185 187 189 192 196 200 204 205 204 203 203 204 205 205 205 204 204 204 205 206 208 211 213 213 211 209 209 208 209 210 209 208 206 205 207 209 209 205 202 203 200 202 211 215
198 203 201 203 210 210 208 210 216 224 225 216 214 222 234 237 236 228 229 229 227 230 223 207 209 215 196 175 185 207 213 205 194 191 192 191 188 189 190 189 187 187 186 185 184 184 184 183 183 184 183 184 184 185 187 189 192 195 199 202 204 204 204 203 205 206 207 207 206 206 207 208 209 211 211 212 211 210 209 209 209 209 210 209 206 203 201 202 204 205 207 206 207 206 204 210 215
195 200 206 208 213 222 224 224 224 224 230 217 205 216 233 237 244 239 235 228 218 220 225 214 205 209 203 180 175 192 212 208 197 194 193 191 188 187 189 190 189 189 187 186 184 184 185 185 183 184 183 183 184 185 187 189 191 193 196 200 202 202 202 202 204 205 207 209 208 208 209 209 212 213 212 211 209 208 208 207 207 208 209 209 208 205 200 200 202 204 207 206 207 209 206 210 214
186 198 210 207 210 225 234 230 230 231 234 225 206 213 218 224 231 217 217 232 220 211 216 216 205 202 205 189 173 181 206 207 196 195 193 188 188 187 189 191 190 190 189 188 186 184 185 185 184 184 184 184 184 185 187 188 189 191 194 198 200 201 201 202 204 204 205 208 210 210 210 210 212 212 212 211 209 207 206 206 206 206 208 208 208 208 204 201 202 204 207 206 207 209 208 211 215
192 196 202 201 210 226 237 233 223 220 229 229 219 217 208 208 222 207 203 216 220 210 208 212 208 204 206 201 183 181 198 205 195 194 191 185 187 188 189 192 192 192 191 190 187 185 184 184 184 184 184 185 186 186 188 188 188 190 193 196 199 200 202 204 205 205 204 207 210 210 210 211 211 211 212 212 210 208 206 205 205 205 205 205 206 207 205 203 202 204 207 207 209 209 209 211 213
217 204 193 197 209 209 213 227 223 216 222 224 226 228 218 209 214 209 201 203 212 210 203 207 208 203 204 206 193 183 191 200 195 194 193 186 186 188 189 192 194 193 193 191 189 186 185 185 185 186 186 187 188 188 188 188 189 191 193 196 198 199 201 203 205 205 205 207 210 210 210 210 210 210 210 210 209 208 206 205 205 205 204 203 203 204 204 204 202 204 206 207 210 211 211 211 211
219 218 199 201 216 208 201 215 226 225 225 219 222 226 226 223 217 209 193 189 202 205 199 209 211 198 195 201 192 180 186 200 194 190 197 193 188 190 191 193 193 192 191 191 190 189 188 186 186 187 188 188 189 189 188 189 190 192 193 194 196 198 200 202 203 204 205 208 210 210 211 210 209 209 209 209 209 209 208 206 205 206 206 204 202 202 203 203 204 204 205 207 210 210 211 213 210
205 214 203 198 206 210 207 211 216 226 231 226 225 224 216 212 210 204 184 174 191 201 194 203 214 200 189 193 189 174 181 203 199 191 198 196 190 191 192 192 192 191 189 191 191 191 191 189 188 189 189 189 190 190 190 190 191 192 193 193 195 197 198 200 202 203 205 208 209 210 211 210 209 208 209 209 209 210 209 208 207 208 209 207 203 201 202 202 204 205 206 209 209 209 212 214 212
195 205 206 199 197 203 208 208 205 216 233 234 238 242 191 105 108 182 187 176 183 197 195 190 204 207 191 185 187 176 179 197 201 195 196 195 191 190 189 189 191 191 190 192 192 191 192 192 191 190 190 190 191 192 191 191 191 193 193 194 195 195 196 198 201 202 205 208 209 209 209 209 208 208 208 209 210 210 210 209 209 208 208 208 204 201 201 202 204 205 205 208 208 207 209 212 212
Height
776 778 778 780 778 780 779 781 793 784 783 795 784 780 770 755 763 764 764 761 755 754 744 742 741 742 752 763 767 765 767 770 776 784 795 789 783 790 791 794 796 798 801 802 804 806 809 810 812 813 815 816 817 818 819 820 821 822 823 825 825 826 827 828 829 829 830 831 832 832 832 833 833 834 835 835 835 836 836 836 836 837 837 837 837 837 838 837 838 838 837 837 837 837 837 838 838
777 778 777 779 776 781 780 781 797 790 785 793 778 770 767 756 758 761 762 760 754 746 737 739 740 744 750 753 757 762 768 765 764 770 776 778 784 791 791 794 796 797 800 802 805 807 809 811 813 814 816 817 818 819 820 821 822 823 824 826 826 827 828 829 830 831 831 832 832 833 834 834 835 835 836 836 836 837 837 837 837 838 838 838 838 838 838 839 839 839 838 838 838 838 838 839 839
776 777 776 779 776 778 777 784 800 799 794 788 771 755 753 758 758 755 750 748 745 737 737 742 748 751 753 759 762 769 775 768 763 766 773 780 784 790 792 794 795 798 799 803 806 807 810 811 813 815 816 818 819 820 821 822 823 824 826 827 828 829 830 831 831 832 833 833 833 834 835 835 836 836 837 837 837 837 837 838 838 838 839 839 839 839 839 839 839 839 839 839 839 839 839 840 840
775 776 774 777 781 782 783 792 796 797 796 781 771 752 742 752 755 752 744 741 738 735 745 754 760 755 757 769 766 769 775 770 767 769 776 781 783 789 791 793 796 798 800 803 806 808 810 811 814 816 817 819 820 822 822 824 825 826 827 828 829 830 831 832 833 833 834 834 835 835 836 837 837 837 838 838 838 838 838 839 839 839 839 839 839 840 840 840 841 840 840 840 840 840 840 841 841
775 775 774 776 785 784 782 790 788 786 779 765 767 754 741 745 746 749 743 740 737 739 749 757 766 759 758 765 763 772 775 771 771 770 776 781 784 788 790 793 796 798 801 804 806 809 810 812 815 816 818 820 821 822 824 825 826 827 827 829 830 831 832 833 834 834 835 835 836 837 837 838 838 838 839 839 839 839 839 840 840 840 840 840 840 840 841 841 841 841 841 841 841 841 841 841 842
774 774 773 774 778 773 778 793 787 774 753 746 759 750 739 739 741 746 743 740 738 740 746 751 762 763 766 763 759 767 769 771 772 771 776 781 785 788 791 793 795 798 801 804 806 809 811 813 815 817 819 821 822 823 825 826 826 828 828 830 831 832 833 834 835 835 836 837 837 838 839 839 839 840 840 840 840 840 841 841 841 841 841 841 841 841 841 841 841 842 842 841 842 842 842 842 843
772 774 772 776 781 771 783 789 770 758 742 737 747 742 737 736 737 742 744 746 745 743 747 752 753 762 772 766 764 764 764 769 769 772 777 781 786 788 791 793 796 799 802 805 807 809 812 813 816 818 820 822 823 825 826 826 827 828 829 831 832 833 834 835 835 836 837 838 839 839 840 840 840 841 841 841 841 842 842 842 842 842 842 842 842 842 842 842 842 842 842 842 843 842 843 843 843
769 775 772 781 788 777 785 775 750 746 739 731 733 735 734 732 732 737 745 751 750 745 751 755 751 767 775 766 772 769 766 771 769 774 778 781 786 788 790 792 795 799 803 806 807 810 812 814 817 819 821 823 824 826 827 827 828 829 830 832 833 834 835 836 837 838 838 839 840 840 841 841 841 842 842 843 843 843 843 843 843 843 843 843 843 843 843 843 843 843 843 843 843 843 844 844 844
767 774 774 781 785 782 785 762 743 742 735 731 730 731 730 728 729 734 744 747 745 744 753 756 752 772 778 770 776 769 767 773 772 777 780 783 786 788 791 792 796 799 803 806 808 811 813 816 818 820 822 824 825 826 827 828 829 830 831 833 834 835 836 837 838 839 839 840 841 841 842 842 843 843 843 844 844 844 844 844 843 844 843 844 844 844 844 844 844 844 844 844 844 844 844 844 845
769 772 774 781 780 783 782 754 741 739 732 731 728 729 728 727 729 733 740 743 741 745 754 753 754 771 776 777 777 768 770 773 774 779 781 784 786 788 791 793 796 799 803 806 809 812 814 817 819 822 823 825 826 827 828 829 830 831 832 834 835 836 837 838 839 840 840 841 842 842 843 843 844 844 845 844 845 845 844 844 844 844 844 844 844 844 845 844 845 845 845 845 845 845 845 845 845
775 769 767 781 785 782 770 750 742 736 729 728 727 726 724 725 730 734 737 742 741 744 752 754 762 770 773 780 778 770 772 774 776 779 782 785 787 789 791 794 797 799 804 806 810 813 815 818 820 822 824 826 827 828 829 830 831 832 834 835 836 837 838 839 840 841 841 842 842 843 843 844 844 845 845 845 845 845 845 845 845 845 845 845 845 845 845 845 846 845 846 846 846 846 846 846 846
776 770 767 784 793 781 756 745 742 734 732 730 732 726 721 725 731 736 739 743 742 744 753 760 765 765 774 783 777 772 773 776 778 780 783 786 787 790 792 795 798 800 804 807 811 813 816 819 821 823 824 826 827 829 830 831 832 833 835 836 837 839 839 840 841 841 842 843 843 844 844 844 845 845 846 846 846 846 846 846 846 846 845 846 846 846 846 846 846 846 846 846 846 847 847 847 846
770 767 769 783 786 773 751 748 743 737 739 734 733 726 721 730 734 736 738 741 744 749 754 757 757 758 776 784 776 774 774 777 779 781 784 786 788 790 793 795 799 801 804 808 811 814 816 819 821 823 825 826 828 830 831 832 834 835 836 837 839 840 840 841 841 842 843 843 844 844 845 845 846 846 846 846 846 846 847 847 846 846 846 846 846 846 847 846 847 847 847 847 847 847 847 848 847
763 758 766 780 776 763 750 752 743 739 746 734 730 726 723 731 732 732 735 747 753 751 746 743 749 761 776 782 781 778 775 778 780 783 784 786 789 790 794 796 800 802 805 808 811 814 816 819 821 823 825 827 829 830 832 833 835 836 837 838 840 840 841 842 842 843 843 844 845 845 845 846 846 847 847 847 847 847 847 847 847 847 847 847 847 847 847 847 847 847 848 848 848 848 848 848 848
757 752 760 775 777 775 762 752 742 742 745 732 728 726 726 728 725 731 735 746 753 740 736 739 745 762 772 777 783 776 773 778 779 783 784 787 789 791 795 797 801 803 806 809 811 814 816 819 821 823 825 827 829 831 833 834 836 837 838 839 840 841 842 843 843 844 844 845 845 846 846 846 847 847 847 847 847 847 848 848 848 848 848 848 848 848 848 848 848 849 849 849 849 849 849 849 849
749 751 762 776 780 788 773 748 741 746 742 731 727 723 732 731 722 732 730 733 744 735 737 745 742 752 759 763 770 769 772 777 779 784 785 788 790 793 796 798 802 803 807 809 811 814 816 819 821 823 826 827 830 832 834 835 836 837 839 840 841 842 843 843 844 844 845 845 846 846 846 846 847 847 847 848 848 848 848 848 848 848 848 848 849 849 849 849 849 850 850 850 850 850 850 850 850
746 755 771 779 778 786 777 754 749 749 739 731 729 725 736 738 726 728 724 725 741 741 740 744 740 741 746 752 760 765 773 776 779 784 785 788 790 792 796 798 802 804 807 809 812 814 816 819 821 823 825 827 830 831 834 835 837 838 839 841 842 843 843 844 844 845 845 846 846 846 847 847 848 848 848 848 848 849 848 849 849 848 849 849 849 849 850 850 851 851 851 851 851 851 851 851 851
752 764 774 778 781 788 776 755 743 738 735 732 730 729 735 741 735 729 728 733 740 743 744 744 743 741 743 751 759 766 772 776 779 782 784 788 789 791 794 797 801 804 807 809 812 814 816 819 820 823 825 827 830 832 834 835 837 838 840 841 842 843 843 844 844 845 846 846 847 846 847 847 847 847 848 849 848 849 849 849 849 849 849 850 850 850 851 851 852 852 852 852 852 852 851 851 851
758 766 769 770 776 773 755 739 732 733 735 731 729 729 732 737 736 731 738 745 743 749 751 748 752 752 751 755 761 767 772 776 778 780 784 787 788 790 792 796 800 803 806 808 811 814 816 818 820 823 824 827 829 831 833 835 837 838 840 841 842 843 843 844 845 845 846 846 847 847 847 847 847 847 848 849 849 849 849 849 849 850 850 851 851 851 852 852 852 852 852 852 852 852 852 852 852
757 761 767 768 764 748 734 732 729 730 728 728 731 729 732 733 731 733 740 746 745 751 753 754 761 761 760 760 761 768 772 775 777 779 783 786 788 790 792 795 799 802 805 807 810 813 815 817 820 822 824 827 829 831 833 834 836 838 840 841 842 843 843 844 845 845 846 846 846 846 846 846 847 847 848 849 849 850 849 849 850 850 851 851 852 852 852 852 852 852 852 853 852 851 852 853 852
753 755 762 765 761 742 728 730 728 727 725 727 732 732 735 730 727 733 738 748 751 746 746 752 760 762 762 763 762 766 770 773 776 778 781 785 787 790 792 795 798 801 804 807 810 812 815 817 819 822 824 826 828 830 832 833 835 837 839 840 841 842 843 844 844 845 845 845 846 846 845 846 847 847 848 848 848 849 849 850 850 850 851 852 853 852 852 852 852 852 852 853 853 852 853 853 852
751 749 747 750 756 745 729 726 728 729 727 727 732 734 733 727 729 733 737 753 751 737 739 747 752 757 760 761 763 765 768 771 774 777 779 783 786 789 792 794 798 800 803 806 808 811 814 816 818 821 823 825 827 829 831 833 834 836 837 839 840 841 842 842 843 844 844 845 845 845 845 846 846 846 847 847 847 848 849 849 849 850 851 853 853 852 852 852 853 852 852 852 853 853 854 853 852
752 747 739 741 747 744 733 728 730 730 731 733 732 730 727 731 736 732 735 745 738 726 734 745 747 752 757 760 764 765 767 770 772 775 778 781 784 787 790 793 796 799 802 804 807 811 812 815 818 820 822 824 826 828 830 832 833 835 836 837 839 840 841 841 842 843 843 844 844 845 845 846 846 846 847 847 848 848 849 849 849 850 852 853 851 852 853 853 853 852 852 852 853 853 853 853 852
751 749 739 737 738 739 734 731 732 731 734 732 727 727 730 738 738 732 734 734 728 725 730 740 744 748 755 761 764 765 766 768 770 774 777 780 783 786 789 792 795 798 800 803 806 809 812 814 817 819 821 823 825 827 829 830 832 834 835 837 838 839 840 840 841 842 843 843 844 845 845 845 845 846 846 847 847 848 848 848 849 850 852 852 851 852 853 853 853 852 852 853 853 853 852 852 852
748 748 738 733 734 734 732 731 733 732 732 727 727 732 732 732 732 733 735 730 726 726 728 736 742 748 756 763 764 764 767 769 770 773 776 779 782 785 789 791 794 797 799 802 805 807 810 813 815 818 820 822 824 826 828 829 831 832 834 836 836 838 839 839 840 841 842 843 843 844 844 845 845 845 846 846 847 847 848 849 849 850 851 852 851 852 853 853 853 853 853 853 852 852 852 852 852
742 742 738 734 734 731 731 733 733 732 729 726 731 736 730 724 728 736 731 726 726 725 729 734 740 749 755 759 761 762 767 768 769 771 774 778 780 783 787 790 792 795 798 801 804 806 809 812 814 817 819 821 823 825 827 828 830 831 833 834 835 837 838 838 840 840 841 842 843 843 844 845 844 845 845 846 847 847 848 849 849 850 851 851 850 851 852 853 853 853 853 853 852 852 852 852 852
733 736 735 733 734 729 730 733 731 731 729 727 732 737 730 721 731 742 729 721 724 726 732 735 740 748 750 754 756 759 765 766 768 769 772 775 778 781 784 788 790 793 797 800 802 805 808 811 813 815 818 820 822 824 825 827 829 830 832 833 835 836 837 838 839 840 840 841 842 842 843 844 845 845 845 846 847 847 848 848 849 850 850 851 850 850 852 852 852 852 852 852 852 852 852 851 852
730 734 737 734 733 730 729 732 731 731 733 727 727 734 731 725 734 738 725 720 724 729 735 736 740 744 746 750 753 757 761 764 767 767 770 773 775 779 781 785 788 792 795 798 800 804 807 809 812 814 816 819 821 822 824 826 828 829 831 832 833 835 836 837 838 839 839 840 841 842 843 844 845 845 845 846 846 847 848 848 849 849 850 850 850 850 851 852 852 852 852 852 852 852 851 851 852
732 733 744 741 734 735 730 730 730 731 734 722 723 741 740 734 735 727 719 719 722 729 735 737 739 742 744 747 751 755 758 761 764 765 767 770 774 777 780 783 786 790 793 796 799 802 806 808 810 813 815 818 819 821 823 825 827 828 830 831 833 834 835 836 837 838 839 840 841 841 843 843 844 845 845 846 847 847 847 848 849 849 850 850 850 851 851 852 851 851 852 851 851 851 851 850 851
735 734 745 747 744 741 727 725 728 729 730 716 726 756 750 732 728 719 715 718 724 731 735 736 738 740 743 745 749 753 754 757 760 762 765 767 772 775 778 781 784 788 791 795 798 800 804 806 809 812 814 816 818 820 822 824 825 827 829 830 831 833 834 835 836 837 838 839 840 841 842 842 843 844 845 846 846 847 847 848 848 849 849 849 850 851 851 851 850 851 851 851 851 851 850 850 851
738 742 745 748 753 745 722 718 727 730 726 711 727 759 747 726 722 717 714 717 725 732 734 735 736 738 742 744 748 751 751 753 756 759 762 765 770 773 776 779 782 786 789 793 796 799 802 804 807 810 812 815 817 819 821 823 824 826 827 829 830 832 833 834 835 836 837 838 839 840 841 841 842 843 844 845 846 846 847 847 848 848 849 849 850 850 850 850 850 850 850 851 850 850 851 851 851
738 751 754 747 749 742 721 713 720 728 724 711 730 755 742 725 721 713 712 717 722 730 732 732 734 737 742 746 749 751 749 750 753 756 759 763 767 770 774 777 780 784 787 791 795 797 800 802 805 807 810 813 815 818 820 822 824 825 827 828 829 831 832 833 834 835 836 837 838 839 840 840 841 843 844 844 845 846 846 846 847 848 848 849 849 849 850 850 850 850 849 850 850 850 850 850 850
737 747 754 744 741 741 727 714 710 716 722 718 728 745 740 732 728 715 710 717 721 727 730 730 733 734 740 747 750 752 750 749 751 753 756 760 764 768 772 775 779 783 786 790 793 796 799 801 804 806 809 812 814 817 819 821 823 824 826 827 828 830 831 832 833 834 835 836 837 838 838 839 841 842 843 844 845 845 846 846 846 847 848 848 849 849 849 849 849 849 849 850 850 850 850 850 850
741 741 745 737 731 735 734 725 711 709 721 725 726 735 735 729 727 717 711 716 721 726 728 728 730 732 740 746 749 752 752 750 749 749 753 757 761 766 769 773 777 781 785 788 791 795 798 800 803 805 807 811 813 815 818 820 822 823 825 826 827 828 830 831 831 833 834 835 836 837 837 839 840 841 842 843 844 845 845 846 846 846 847 848 848 848 848 848 849 849 849 849 849 850 849 850 850
740 739 740 737 728 727 732 728 715 711 722 727 728 734 733 723 717 714 712 713 719 724 724 724 726 730 738 743 746 750 751 750 746 745 749 754 758 763 766 771 775 778 782 786 790 793 796 799 802 804 806 809 812 814 816 819 820 822 824 825 826 827 828 829 830 831 833 833 834 836 837 838 839 840 841 842 843 844 845 845 846 846 847 847 847 847 847 848 848 849 849 849 849 849 849 849 850
727 727 730 735 731 725 723 719 709 709 724 729 729 732 730 725 718 713 711 710 717 721 720 722 724 727 735 741 743 746 749 750 745 743 747 751 755 760 764 768 772 776 780 784 788 791 794 797 800 802 805 807 810 812 815 817 819 821 822 823 824 826 827 828 829 830 831 832 833 835 836 837 838 839 840 841 842 843 844 845 845 846 846 846 847 846 846 847 847 848 848 849 849 849 849 849 850
717 719 722 725 727 724 718 718 707 702 723 731 726 728 725 724 721 713 709 710 716 721 721 723 724 725 732 739 741 742 747 748 744 744 746 748 752 757 762 766 770 774 778 781 785 789 792 795 798 800 802 805 808 810 812 814 816 818 819 821 822 823 825 826 828 829 830 831 832 833 834 836 837 838 839 840 841 842 843 844 844 845 845 846 846 846 846 846 847 847 848 848 848 848 849 849 849
717 718 721 720 721 719 710 714 710 701 721 730 721 726 725 719 718 710 706 712 717 717 719 722 722 722 728 736 738 740 744 745 743 743 743 746 750 754 759 762 766 770 774 779 782 786 790 793 796 798 800 803 805 807 810 812 814 815 817 818 820 821 823 825 826 827 828 829 831 832 833 834 835 837 838 839 840 841 842 843 843 844 845 845 846 846 846 846 846 847 847 847 848 848 848 848 849
720 719 724 724 716 714 708 707 706 704 721 730 722 727 726 714 711 706 703 708 711 709 711 715 716 719 726 734 736 738 742 744 742 740 739 742 746 750 755 759 763 767 771 776 780 784 787 790 794 796 798 800 803 805 807 810 812 813 815 817 818 820 821 823 824 826 827 828 829 831 832 833 834 835 836 837 839 840 840 842 842 843 844 844 845 845 846 846 846 846 847 847 847 847 848 848 849
722 720 726 726 713 715 718 709 706 707 716 724 723 726 725 716 712 708 702 700 701 702 704 706 707 712 721 728 730 734 740 743 742 737 735 738 742 747 752 756 760 764 768 772 776 781 784 787 790 794 796 798 801 803 805 808 810 813 815 816 817 819 820 822 823 825 826 827 828 829 830 831 832 833 835 836 837 838 839 840 841 842 843 843 844 844 845 845 845 845 846 846 846 846 846 847 848
722 717 720 723 712 711 713 705 703 707 711 713 721 736 734 722 721 715 703 698 698 699 702 705 703 704 713 722 725 728 734 739 740 735 730 732 737 742 747 752 756 760 764 767 771 776 779 783 787 790 794 796 798 801 804 807 809 811 814 815 817 818 819 820 822 823 824 825 826 827 828 829 831 832 833 834 835 836 837 838 840 841 841 842 843 843 843 843 844 844 845 845 846 846 845 846 847
724 716 712 714 711 707 706 703 707 721 727 713 719 751 749 722 719 716 704 702 701 699 702 707 705 702 709 721 725 727 729 732 735 731 726 727 731 738 744 749 753 756 759 763 767 772 775 780 784 787 791 794 796 799 802 805 807 809 811 813 814 815 817 818 819 820 821 823 824 825 827 828 829 830 831 832 833 835 836 837 838 839 840 841 841 842 842 842 843 843 844 845 845 845 845 845 846
725 711 704 709 709 709 709 707 712 728 731 711 709 744 752 726 717 712 702 704 703 700 704 706 705 703 706 713 717 722 725 726 731 731 724 723 726 732 738 743 748 751 755 760 764 768 772 776 780 784 787 791 794 796 799 802 804 807 809 810 812 813 814 815 817 818 819 821 822 823 824 826 827 828 829 830 832 833 834 835 836 838 839 839 840 840 841 842 842 842 843 844 844 845 845 845 845
721 700 697 706 709 713 714 712 715 716 716 712 705 722 744 736 718 704 698 704 704 702 706 705 702 703 705 706 706 712 717 717 725 729 721 719 722 725 731 737 742 746 751 756 760 764 768 772 776 780 784 787 790 793 796 799 802 804 806 808 809 811 812 813 815 817 818 819 820 821 822 824 825 826 828 829 830 831 832 834 835 836 837 838 838 839 840 841 841 841 842 843 844 844 844 845 845
711 694 694 700 704 710 711 714 719 713 719 731 713 708 733 733 710 698 697 704 709 707 707 706 702 701 703 703 701 703 709 709 715 720 715 714 717 720 725 731 737 742 747 752 756 760 764 768 772 776 780 783 787 790 793 796 799 801 803 805 807 808 810 812 813 815 817 818 819 820 821 822 823 824 826 827 828 829 831 832 833 834 836 836 837 838 839 840 840 841 841 842 843 843 844 845 844
700 693 695 696 699 705 709 715 720 719 730 739 720 708 727 729 709 704 704 705 708 705 702 702 700 700 702 704 701 698 700 703 705 708 708 709 713 717 722 728 734 739 743 748 753 757 762 765 769 773 776 780 783 786 790 792 796 798 801 802 803 805 807 809 811 813 814 816 817 818 819 820 821 823 824 825 826 828 829 830 831 833 834 835 836 837 838 838 839 840 840 841 842 842 843 844 845
693 696 700 704 708 710 713 713 717 731 738 731 717 708 720 730 715 702 700 697 695 695 697 699 698 699 702 706 703 695 694 698 699 700 703 707 711 716 721 726 730 735 739 745 749 753 758 761 765 769 772 776 779 782 786 789 792 795 797 799 800 802 805 807 809 810 812 813 814 816 817 818 819 821 822 823 824 826 827 828 829 831 832 833 834 835 836 837 838 839 839 840 841 841 842 843 844
694 701 706 719 726 723 727 724 725 743 742 723 710 705 715 728 714 694 686 681 679 683 689 695 697 696 696 702 702 693 692 696 696 698 701 704 710 714 718 722 727 731 735 740 745 749 753 757 761 765 768 772 775 778 782 785 788 791 793 796 798 799 802 804 805 807 809 810 812 813 815 816 818 819 820 821 822 823 825 826 827 829 830 831 832 833 834 835 836 837 838 839 840 840 842 843 844
697 703 711 730 739 740 747 742 736 741 733 714 704 707 716 714 699 687 680 673 671 672 674 681 687 686 686 694 696 689 688 692 693 696 699 702 707 709 713 718 722 727 730 734 739 743 748 753 756 760 764 767 771 774 778 781 784 787 790 792 795 797 799 800 802 804 806 808 809 811 812 813 815 816 817 818 819 821 823 824 825 827 828 829 830 831 833 834 835 836 836 838 838 839 841 842 843
699 703 711 729 737 749 759 747 737 736 724 707 698 706 715 706 688 678 674 670 665 662 663 668 673 673 674 682 688 685 683 686 689 692 695 698 702 705 708 712 717 721 725 728 733 738 742 747 751 755 759 763 767 770 773 777 780 783 786 789 791 793 795 797 799 801 803 805 806 807 809 810 812 813 814 815 817 818 820 822 823 824 826 827 828 829 831 832 833 834 835 836 837 838 839 840 842
695 690 698 716 720 731 744 737 734 733 720 707 703 708 713 706 686 667 661 661 658 657 656 657 661 662 663 671 681 684 681 681 685 689 691 693 696 700 704 709 713 716 720 723 728 733 737 741 745 750 754 758 762 765 769 772 775 779 782 785 788 790 791 793 795 797 799 801 803 804 805 807 808 810 811 813 814 816 818 819 821 822 824 825 826 827 829 830 831 832 834 835 836 837 838 839 840
691 682 694 709 701 702 715 714 710 713 714 708 704 703 695 684 672 657 656 657 654 657 656 654 660 659 658 667 677 682 680 678 682 686 688 689 691 696 700 704 709 712 716 719 723 727 731 736 740 744 748 752 756 760 764 767 771 775 778 781 784 786 788 790 792 794 795 797 799 801 802 804 805 807 808 810 811 813 815 816 818 820 821 823 824 826 827 828 829 830 832 833 834 835 836 837 839
687 688 696 691 679 686 705 709 696 700 718 708 693 696 689 680 676 662 661 664 657 658 659 656 660 659 660 665 671 676 676 673 677 682 683 685 687 691 695 699 704 708 711 714 717 720 725 730 735 739 744 748 752 755 759 763 766 770 773 776 780 782 784 786 787 789 792 794 796 798 799 800 802 804 805 807 808 810 812 813 815 817 819 820 822 823 825 826 827 828 829 831 832 833 834 836 837
679 692 687 676 678 684 696 713 711 714 729 711 689 694 695 698 696 670 664 673 665 658 659 658 658 660 662 662 664 669 670 668 672 676 677 680 683 686 690 695 699 702 706 709 712 716 720 725 729 734 739 743 746 750 754 758 761 765 768 771 775 777 779 782 784 786 788 791 793 794 795 797 798 800 802 804 805 807 808 810 812 814 816 817 819 821 822 823 825 826 827 828 830 831 832 833 835
664 672 667 674 697 701 700 714 719 722 731 717 697 693 689 692 690 671 667 673 667 660 658 658 657 657 659 658 657 662 665 665 668 672 675 676 679 682 685 689 693 697 702 706 710 714 717 721 724 729 733 736 740 745 749 753 755 759 763 765 769 772 775 778 780 783 785 787 788 790 791 793 794 797 799 800 802 804 805 807 809 811 812 814 816 818 820 821 822 823 825 826 827 829 830 831 832
658 661 661 668 684 691 695 702 705 711 721 717 708 701 690 676 665 661 664 664 663 663 660 658 655 651 652 653 652 656 661 663 663 669 674 673 673 675 678 683 687 693 699 704 708 712 714 717 721 725 729 732 737 741 744 748 750 754 757 760 764 767 770 774 776 779 781 782 784 786 788 789 791 793 795 797 799 800 802 804 805 808 809 811 813 814 816 818 819 821 822 823 825 826 828 829 830
668 672 672 673 674 676 684 689 688 696 709 711 708 704 685 657 642 647 654 654 656 657 657 658 652 646 647 648 649 653 659 661 661 666 671 669 668 670 674 680 685 690 696 700 703 707 710 713 716 720 724 728 732 736 739 742 745 749 752 755 759 762 765 769 772 775 777 778 780 782 784 786 787 789 791 793 795 797 799 801 802 804 806 808 810 811 813 815 816 818 819 820 821 823 825 826 828
662 670 668 669 674 678 692 698 686 684 695 698 701 702 679 647 636 642 645 647 649 648 650 654 650 645 644 644 646 650 656 659 660 662 664 663 664 667 671 677 682 685 690 694 698 702 705 708 711 715 719 722 725 729 733 736 740 743 746 749 753 757 760 764 767 770 772 774 776 778 780 782 784 785 787 789 791 793 796 798 799 801 803 805 807 808 810 812 813 815 816 817 818 820 822 824 825